Hauptseite
METAR-TAF:

METAR-TAF

Flughäfen :

Flughafen Epinal-Mirecourt

Épinal, Frankreich

Breite: 48-19-31N, Länge: 6-04-00E, Höhe: 330 m

Beobachtung

Neuester Wetterbericht von vor 31 Minuten, um 09:00 UTC
Wind 14 kt aus West/Südwest
Temperatur 13°C
Luftfeuchtigkeit 72%
Luftdruck 1011 hPa
Sichtweite 10 km oder mehr
Aufgelockert bewölkt in der Höhe von 3600 ft
Durchbrochene Bewölkung in der Höhe von 4300 ft
Geschlossene Wolkendecke in der Höhe von 6800 ft

METAR: LFSG 240900Z AUTO 24014KT 9999 SCT036 BKN043 OVC068 13/08 Q1011

Zeit: 11:31 (09:31 UTC)


TAF: fehlend

Wetterbeobachtungen und Prognosen von mehr als 4000 Flughäfen (METAR und TAF Bericht).

Die verfügbaren Stationen werden durch gelbe und rote Markierungen auf der Karte dargestellt.

Führen Sie die Maus auf sie, um den Namen der Station zu sehen.

Darauf klicken, um die Beobachtung von Wetterbeobachtungen und Prognosen zu sehen.

Um die Karte zu ändern : klicken Sie auf den grünen Tasten mit einem schwarzen Kreuz Zum Vergrößern, auf den grünen Button mit einem Gedankenstrich zu verkleinern, oder auf die grünen Pfeile für benachbarte Karten.


METAR-TAF: